CW9774 Weather Reports


time (UTC)temp
C
wind
direction
speed
KPH
gust
KPH
rain 1hr
cm
rain 24hr
cm
rain mn
cm
humidity
%
barometer
mb
20260906195530 27 170 3.2 16.1 0.00 1.09 1.09 75 1015.4
20260906195030 26 182 3.2 16.1 0.00 1.09 1.09 75 1015.6
20260906194552 26 35 4.8 14.5 0.00 1.09 1.09 74 1015.7
20260906194030 26 80 3.2 12.9 0.00 1.09 1.09 76 1015.8
20260906193531 26 84 1.6 14.5 0.00 1.09 1.09 78 1015.9
20260906193050 26 89 6.4 14.5 0.00 1.09 1.09 78 1016.1
20260906192530 25 63 4.8 12.9 0.00 1.09 1.09 78 1016.2
20260906192030 25 90 4.8 14.5 0.00 1.09 1.09 78 1016.2
20260906191550 25 90 3.2 14.5 0.00 1.09 1.09 80 1016.4
20260906191031 25 88 6.4 20.9 0.00 1.09 1.09 80 1016.4
20260906190531 25 80 6.4 20.9 0.00 1.09 1.09 81 1016.4
20260906190051 24 37 9.7 20.9 0.00 1.09 1.09 81 1016.6
20260906185533 24 56 8.0 17.7 0.00 1.09 1.09 82 1016.5
20260906185030 24 69 8.0 19.3 0.00 1.09 1.09 82 1016.7
20260906184549 24 20 9.7 20.9 0.00 1.09 1.09 84 1016.6
20260906184032 23 63 8.0 20.9 0.00 1.09 1.09 83 1016.8
20260906183532 23 19 8.0 25.7 0.00 1.09 1.09 83 1016.9
20260906183108 23 67 9.7 25.7 0.00 1.09 1.09 83 1017.1
20260906182530 23 39 12.9 25.7 0.00 1.09 1.09 83 1017.2
20260906182033 23 56 11.3 22.5 0.00 1.09 1.09 84 1017.2
20260906181556 23 71 4.8 24.1 0.00 1.09 1.09 85 1017.4
20260906181030 23 32 12.9 24.1 0.00 1.09 1.09 86 1017.3
20260906180532 23 36 9.7 20.9 0.00 1.09 1.09 88 1017.3
20260906180113 23 25 9.7 19.3 0.00 1.09 1.09 89 1017.2
20260906175531 22 24 9.7 19.3 0.00 1.09 1.09 89 1017.3
20260906175030 22 44 9.7 20.9 0.00 1.09 1.09 89 1017.4
20260906174548 22 19 6.4 20.9 0.00 1.09 1.09 91 1017.5
20260906174031 22 71 6.4 20.9 0.00 1.09 1.09 91 1017.5
20260906173532 22 38 9.7 22.5 0.00 1.09 1.09 91 1017.4
20260906173054 22 71 9.7 22.5 0.00 1.09 1.09 92 1017.4
20260906172530 22 21 9.7 29.0 0.00 1.09 1.09 93 1017.5
20260906172033 22 348 8.0 29.0 0.00 1.09 1.09 93 1017.4
20260906171552 21 28 14.5 29.0 0.00 1.09 1.09 92 1017.6
20260906171031 21 5 9.7 20.9 0.00 1.09 1.09 93 1017.8
20260906170531 21 38 8.0 20.9 0.00 1.09 1.09 93 1017.9
20260906170050 21 37 6.4 24.1 0.03 1.09 1.09 93 1017.9
20260906165530 20 342 8.0 27.4 0.08 1.09 1.09 92 1017.9
20260906165031 20 344 17.7 27.4 0.08 1.09 1.09 92 1018.1
20260906164546 20 37 17.7 27.4 0.08 1.09 1.09 93 1018.0
20260906164031 20 335 16.1 24.1 0.08 1.09 1.09 93 1018.1
20260906163532 20 315 11.3 24.1 0.08 1.09 1.09 93 1018.3
20260906163058 20 295 12.9 30.6 0.08 1.09 1.09 94 1018.1
20260906162531 20 329 16.1 30.6 0.08 1.09 1.09 94 1017.7
20260906162030 20 311 14.5 22.5 0.08 1.09 1.09 94 1017.6
20260906161557 20 264 12.9 22.5 0.08 1.09 1.09 94 1017.7
20260906161030 20 290 11.3 19.3 0.08 1.09 1.09 94 1017.5
20260906160531 20 342 11.3 17.7 0.08 1.09 1.09 94 1016.9
20260906160049 21 301 8.0 14.5 0.05 1.04 1.04 94 1016.8
20260906155531 20 275 4.8 12.9 0.03 1.04 1.02 94 1016.8
20260906155030 20 316 3.2 12.9 0.05 1.04 1.02 94 1016.7
20260906154546 20 340 6.4 12.9 0.05 1.04 1.02 94 1016.6
20260906154030 20 355 4.8 9.7 0.05 1.04 1.02 94 1016.5
20260906153530 20 333 3.2 9.7 0.05 1.04 1.02 94 1016.8
20260906153043 20 21 1.6 9.7 0.05 1.04 1.02 94 1017.0
20260906152534 20 0 1.6 12.9 0.08 1.04 1.02 95 1017.1
20260906152031 20 39 4.8 12.9 0.18 1.04 1.02 95 1017.1
20260906151550 20 22 3.2 9.7 0.28 1.04 1.02 94 1017.5
20260906151030 20 0 1.6 11.3 0.56 1.04 1.02 95 1018.0
20260906150533 20 55 3.2 11.3 0.66 1.02 0.99 94 1018.0
20260906150057 20 0 1.6 11.3 0.69 1.02 0.99 94 1018.4
20260906145533 20 105 0.0 16.1 0.76 1.02 0.99 94 1018.6
20260906145031 20 153 3.2 16.1 0.74 0.99 0.97 94 1018.3
20260906144559 20 153 6.4 14.5 0.74 0.99 0.97 94 1018.1
20260906144030 20 173 3.2 12.9 0.74 0.99 0.97 93 1017.5
20260906143530 20 148 3.2 16.1 0.74 0.99 0.97 93 1016.6
20260906143053 20 294 8.0 16.1 0.71 0.97 0.94 93 1016.1
20260906142530 20 337 8.0 14.5 0.71 0.97 0.94 93 1016.2
20260906142030 20 293 3.2 11.3 0.56 0.81 0.79 94 1017.1
20260906141550 21 0 3.2 11.3 0.51 0.76 0.74 93 1017.6
20260906141030 21 194 4.8 9.7 0.23 0.46 0.43 94 1017.9
20260906140534 21 148 0.0 4.8 0.13 0.36 0.33 94 1017.7
20260906140044 21 0 0.0 4.8 0.08 0.30 0.28 94 1017.6
20260906135534 21 0 0.0 4.8 0.03 0.25 0.23 94 1017.3
20260906135030 21 0 0.0 4.8 0.03 0.25 0.23 94 1017.2
20260906134556 21 0 0.0 3.2 0.03 0.25 0.23 94 1017.2
20260906134031 21 0 0.0 0.0 0.03 0.25 0.23 94 1016.9
20260906133530 21 0 0.0 0.0 0.03 0.25 0.23 93 1016.8
20260906133049 21 0 0.0 1.6 0.03 0.25 0.23 93 1016.6
20260906132530 21 0 0.0 3.2 0.03 0.25 0.23 93 1016.5
20260906132030 21 0 0.0 8.0 0.03 0.25 0.23 93 1016.4
20260906131547 21 70 3.2 8.0 0.03 0.25 0.23 93 1016.4
20260906131031 21 0 0.0 4.8 0.00 0.23 0.20 93 1016.4
20260906130530 21 0 0.0 0.0 0.00 0.23 0.20 92 1016.6
20260906130105 22 0 0.0 0.0 0.00 0.23 0.20 92 1016.5
20260906125532 22 0 0.0 1.6 0.00 0.23 0.20 92 1016.5
20260906125031 22 0 0.0 3.2 0.00 0.23 0.20 92 1016.4
20260906124551 22 274 0.0 6.4 0.08 0.23 0.20 92 1016.3
20260906124030 22 0 3.2 8.0 0.20 0.23 0.20 92 1016.2
20260906123531 22 257 3.2 16.1 0.20 0.23 0.20 92 1016.2
20260906123049 22 0 4.8 19.3 0.20 0.23 0.20 92 1016.1
20260906122533 21 219 6.4 19.3 0.20 0.23 0.20 93 1015.9
20260906122030 21 254 11.3 22.5 0.20 0.23 0.20 93 1015.8
20260906121546 21 262 11.3 22.5 0.20 0.23 0.20 94 1015.7
20260906121030 22 262 11.3 17.7 0.20 0.23 0.20 95 1015.8
20260906120530 22 246 8.0 19.3 0.20 0.23 0.20 95 1015.9
20260906120054 22 236 11.3 19.3 0.20 0.23 0.20 95 1016.2
20260906115532 22 215 11.3 20.9 0.20 0.23 0.20 95 1016.1
20260906115032 22 213 14.5 20.9 0.20 0.23 0.20 95 1015.9
20260906114605 22 220 12.9 16.1 0.13 0.15 0.13 95 1015.8
20260906114029 22 200 6.4 9.7 0.00 0.03 0.00 95 1015.9
20260906113529 22 207 4.8 6.4 0.00 0.03 0.00 95 1016.0
20260906113056 22 178 1.6 8.0 0.00 0.03 0.00 95 1015.9
20260906112530 22 178 3.2 9.7 0.00 0.03 0.00 95 1016.0
20260906112030 22 195 6.4 9.7 0.00 0.03 0.00 95 1015.9
20260906111545 22 196 1.6 14.5 0.00 0.03 0.00 95 1015.5
20260906111030 22 194 8.0 14.5 0.00 0.03 0.00 95 1015.6
20260906110530 22 211 0.0 9.7 0.00 0.03 0.00 95 1015.3
20260906110050 22 148 1.6 9.7 0.00 0.03 0.00 95 1014.8
20260906105532 22 0 0.0 8.0 0.00 0.03 0.00 95 1014.8
20260906105033 22 0 0.0 4.8 0.00 0.03 0.00 95 1014.7
20260906104547 22 113 0.0 4.8 0.00 0.03 0.00 95 1014.5
20260906104031 22 0 0.0 4.8 0.00 0.03 0.00 95 1014.5
20260906103530 22 0 0.0 1.6 0.00 0.03 0.00 95 1014.5
20260906103053 22 0 0.0 1.6 0.00 0.03 0.00 95 1014.3
20260906102530 22 0 0.0 4.8 0.00 0.03 0.00 95 1014.3
20260906102033 22 78 0.0 4.8 0.00 0.03 0.00 95 1014.5
20260906101550 22 0 0.0 1.6 0.00 0.03 0.00 95 1014.5
20260906101029 22 0 0.0 1.6 0.00 0.03 0.00 95 1014.5
20260906100532 22 0 0.0 6.4 0.00 0.03 0.00 95 1014.5
20260906100252 22 0 0.0 6.4 0.00 0.03 0.00 95 1014.6
20260906095530 22 135 0.0 6.4 0.00 0.03 0.00 95 1014.6
20260906095030 22 119 0.0 6.4 0.00 0.03 0.00 95 1014.7
20260906094547 22 127 0.0 3.2 0.00 0.03 0.00 95 1014.7
20260906094030 22 127 0.0 0.0 0.00 0.03 0.00 95 1014.7
20260906093530 22 0 0.0 0.0 0.00 0.03 0.00 95 1014.6
20260906093043 22 0 0.0 1.6 0.00 0.03 0.00 95 1014.5
20260906092531 22 0 0.0 4.8 0.00 0.03 0.00 95 1014.4
20260906092033 22 127 0.0 4.8 0.00 0.03 0.00 95 1014.5
20260906091551 23 0 0.0 4.8 0.00 0.03 0.00 95 1014.4
20260906091033 23 0 0.0 4.8 0.00 0.03 0.00 95 1014.4
20260906090531 23 0 0.0 4.8 0.00 0.03 0.00 95 1014.5
20260906090056 23 0 0.0 8.0 0.00 0.03 0.00 95 1014.5
20260906085531 23 0 0.0 8.0 0.00 0.03 0.00 95 1014.5
20260906085029 23 0 0.0 6.4 0.00 0.03 0.00 95 1014.5
20260906084547 23 0 0.0 4.8 0.00 0.03 0.00 95 1014.6
20260906084029 23 0 0.0 4.8 0.00 0.03 0.00 95 1014.6
20260906083532 23 0 0.0 6.4 0.00 0.03 0.00 95 1014.6
20260906083052 23 0 0.0 6.4 0.00 0.03 0.00 95 1014.6
20260906082531 23 147 0.0 4.8 0.00 0.03 0.00 95 1014.7
20260906082033 23 0 0.0 0.0 0.00 0.03 0.00 95 1014.8
20260906081556 23 0 0.0 0.0 0.00 0.03 0.00 95 1014.9
20260906081031 23 0 0.0 0.0 0.00 0.03 0.00 95 1015.0
20260906080532 23 0 0.0 3.2 0.00 0.03 0.00 95 1015.0
20260906080050 23 0 0.0 6.4 0.00 0.03 0.00 95 1015.1
20260906075533 23 0 0.0 6.4 0.00 0.03 0.00 95 1015.1
20260906075031 23 0 0.0 6.4 0.00 0.03 0.00 94 1015.1
20260906074605 23 0 0.0 6.4 0.00 0.03 0.00 94 1015.1
20260906074032 23 0 0.0 6.4 0.00 0.03 0.00 94 1015.1
20260906073531 23 156 0.0 3.2 0.00 0.03 0.00 94 1015.1
20260906073044 23 0 0.0 6.4 0.00 0.03 0.00 94 1015.1
20260906072532 23 0 0.0 8.0 0.00 0.03 0.00 94 1015.1
20260906072035 23 136 0.0 8.0 0.00 0.03 0.00 94 1015.0
20260906071553 23 0 0.0 11.3 0.00 0.03 0.00 94 1015.0
20260906071033 23 0 0.0 11.3 0.00 0.03 0.00 94 1014.9
20260906070534 23 142 0.0 9.7 0.00 0.03 0.00 94 1014.7
20260906070048 23 169 0.0 9.7 0.00 0.03 0.00 94 1014.7
20260906065532 23 136 1.6 8.0 0.00 0.03 0.00 94 1014.9
20260906065033 23 0 0.0 9.7 0.00 0.03 0.00 93 1014.9
20260906064552 23 144 0.0 9.7 0.00 0.03 0.00 93 1015.0
20260906064029 23 0 0.0 6.4 0.00 0.03 0.00 93 1014.9
20260906063531 23 0 0.0 6.4 0.00 0.03 0.00 93 1014.9
20260906063052 23 107 0.0 8.0 0.00 0.03 0.00 93 1014.7
20260906062532 23 143 1.6 8.0 0.00 0.03 0.00 92 1014.8
20260906062034 23 156 1.6 8.0 0.00 0.03 0.00 92 1015.0
20260906061555 23 0 1.6 8.0 0.00 0.03 0.00 92 1015.0
20260906061032 23 152 1.6 9.7 0.00 0.03 0.00 92 1015.0
20260906060531 24 123 1.6 9.7 0.00 0.03 0.00 92 1015.0
20260906060047 24 148 0.0 9.7 0.00 0.03 0.00 92 1015.0
20260906055531 24 0 1.6 8.0 0.00 0.03 0.00 92 1015.0
20260906055031 24 0 1.6 11.3 0.00 0.03 0.00 91 1015.0
20260906054555 24 0 1.6 11.3 0.00 0.03 0.00 92 1015.1
20260906054033 24 0 1.6 11.3 0.00 0.03 0.00 91 1015.1
20260906053532 24 0 0.0 11.3 0.00 0.03 0.00 91 1015.1
20260906053048 24 116 1.6 11.3 0.00 0.03 0.00 92 1015.1
20260906052531 24 109 1.6 11.3 0.00 0.03 0.00 92 1015.1
20260906052031 24 0 0.0 9.7 0.00 0.03 0.00 91 1015.0
20260906051601 24 77 1.6 9.7 0.00 0.03 0.00 92 1015.0
20260906051032 24 0 0.0 9.7 0.00 0.03 0.00 92 1015.0
20260906050532 24 111 0.0 8.0 0.00 0.03 0.00 92 1015.1
20260906050055 24 0 0.0 9.7 0.00 0.03 0.00 92 1015.1
20260906045536 24 96 0.0 9.7 0.00 0.03 0.03 92 1015.2
20260906045035 24 185 0.0 8.0 0.00 0.03 0.03 92 1015.2
20260906044548 24 0 0.0 6.4 0.00 0.03 0.03 92 1015.1
20260906044033 24 112 0.0 4.8 0.00 0.03 0.03 92 1015.2
20260906043535 24 0 0.0 4.8 0.00 0.03 0.03 92 1015.2
20260906043045 24 105 0.0 3.2 0.00 0.03 0.03 92 1015.3
20260906042531 24 0 0.0 0.0 0.00 0.03 0.03 92 1015.3
20260906042031 24 0 0.0 0.0 0.00 0.03 0.03 92 1015.3
20260906041550 24 0 0.0 3.2 0.00 0.03 0.03 92 1015.3
20260906041032 24 0 0.0 3.2 0.00 0.03 0.03 92 1015.3
20260906040531 25 0 0.0 1.6 0.00 0.03 0.03 92 1015.3
20260906040052 25 0 0.0 6.4 0.00 0.03 0.03 92 1015.3
20260906035532 25 101 0.0 6.4 0.00 0.03 0.03 92 1015.2
20260906035031 25 0 0.0 9.7 0.00 0.03 0.03 92 1015.2
20260906034548 24 0 0.0 9.7 0.00 0.03 0.03 92 1015.2
20260906034032 24 0 0.0 4.8 0.00 0.03 0.03 92 1015.2
20260906033532 24 0 0.0 3.2 0.00 0.03 0.03 92 1015.2
20260906033048 24 0 0.0 3.2 0.00 0.03 0.03 92 1015.2
20260906032530 24 82 0.0 6.4 0.00 0.03 0.03 92 1015.2
20260906032031 24 82 0.0 6.4 0.00 0.03 0.03 92 1015.1
20260906031559 24 0 0.0 3.2 0.00 0.03 0.03 92 1015.1
20260906031031 24 0 0.0 4.8 0.00 0.03 0.03 92 1015.1
20260906030531 24 0 0.0 4.8 0.00 0.03 0.03 92 1015.2
20260906030050 24 99 0.0 4.8 0.00 0.03 0.03 92 1015.2
20260906025531 24 0 0.0 3.2 0.00 0.03 0.03 92 1015.1
20260906025034 24 0 0.0 3.2 0.00 0.03 0.03 92 1015.2
20260906024546 24 0 0.0 4.8 0.00 0.03 0.03 92 1015.3
20260906024031 24 0 0.0 4.8 0.00 0.03 0.03 92 1015.3
20260906023533 24 78 0.0 3.2 0.00 0.03 0.03 92 1015.3
20260906023051 24 0 0.0 1.6 0.00 0.03 0.03 92 1015.3
20260906022531 24 0 0.0 1.6 0.00 0.03 0.03 91 1015.2
20260906022031 24 0 0.0 1.6 0.00 0.03 0.03 91 1015.1
20260906021550 24 78 0.0 1.6 0.00 0.03 0.03 91 1015.0
20260906021031 24 0 0.0 1.6 0.00 0.03 0.03 91 1014.8
20260906020531 24 0 0.0 1.6 0.00 0.03 0.03 91 1014.7
20260906020051 24 0 0.0 0.0 0.00 0.03 0.03 90 1014.7
20260906015531 24 0 0.0 1.6 0.00 0.03 0.03 90 1014.4
20260906015031 24 0 0.0 1.6 0.00 0.03 0.03 89 1014.3
20260906014543 25 0 0.0 1.6 0.00 0.03 0.03 89 1014.2
20260906014030 25 0 0.0 1.6 0.00 0.03 0.03 88 1014.0
20260906013531 25 0 0.0 1.6 0.00 0.03 0.03 88 1013.8
20260906013050 25 0 0.0 3.2 0.00 0.03 0.03 87 1013.6
20260906012533 25 0 0.0 3.2 0.00 0.03 0.03 87 1013.5
20260906012030 26 0 0.0 0.0 0.00 0.03 0.03 86 1013.4
20260906011550 26 0 0.0 0.0 0.00 0.03 0.03 85 1013.3
20260906011031 26 0 0.0 0.0 0.00 0.03 0.03 84 1013.3
20260906010531 26 0 0.0 0.0 0.00 0.03 0.03 84 1013.3
20260906010047 27 0 0.0 1.6 0.00 0.03 0.03 83 1013.3
20260906005531 27 0 0.0 1.6 0.00 0.03 0.03 81 1013.4
20260906005033 27 0 0.0 1.6 0.00 0.03 0.03 81 1013.3
20260906004544 27 0 0.0 1.6 0.00 0.03 0.03 80 1013.4
20260906004031 27 0 0.0 4.8 0.00 0.03 0.03 79 1013.2
20260906003531 28 0 0.0 6.4 0.00 0.03 0.03 78 1013.3
20260906003054 28 0 1.6 8.0 0.00 0.03 0.03 78 1013.3
20260906002530 28 0 1.6 9.7 0.00 0.03 0.03 77 1013.4
20260906002031 28 169 0.0 9.7 0.00 0.03 0.03 77 1013.5
20260906001550 28 155 3.2 9.7 0.00 0.03 0.03 76 1013.6
20260906001031 28 159 4.8 11.3 0.00 0.03 0.03 76 1013.5
20260906000531 29 168 4.8 11.3 0.00 0.03 0.03 75 1013.5
20260906000047 29 174 4.8 11.3 0.00 0.03 0.03 74 1013.5
20260905235531 30 174 4.8 14.5 0.00 0.03 0.03 73 1013.5
20260905235031 30 169 4.8 16.1 0.00 0.03 0.03 72 1013.4
20260905234556 30 170 4.8 16.1 0.00 0.03 0.03 71 1013.4
20260905234031 30 168 6.4 16.1 0.00 0.03 0.03 70 1013.3
20260905233531 31 161 6.4 19.3 0.00 0.03 0.03 69 1013.3
20260905233051 31 182 9.7 19.3 0.00 0.03 0.03 69 1013.2
20260905232532 31 198 6.4 20.9 0.00 0.03 0.03 69 1013.1
20260905232031 31 170 9.7 22.5 0.00 0.03 0.03 68 1013.0
20260905231551 31 174 8.0 22.5 0.00 0.03 0.03 67 1013.0
20260905231034 31 178 11.3 19.3 0.00 0.03 0.03 66 1012.9
20260905230532 32 204 9.7 16.1 0.00 0.03 0.03 66 1012.9
20260905230052 32 159 8.0 20.9 0.00 0.03 0.03 65 1013.0
20260905225530 32 171 11.3 24.1 0.00 0.03 0.03 65 1013.0
20260905225032 32 188 14.5 24.1 0.00 0.03 0.03 63 1012.9
20260905224603 32 164 9.7 20.9 0.00 0.03 0.03 66 1012.9
20260905224031 32 198 12.9 20.9 0.00 0.03 0.03 65 1012.9
20260905223533 32 185 12.9 20.9 0.00 0.03 0.03 66 1013.0
20260905223051 32 189 8.0 20.9 0.00 0.03 0.03 64 1013.0
20260905222531 32 174 9.7 25.7 0.00 0.03 0.03 63 1013.0
20260905222032 32 226 14.5 35.4 0.00 0.03 0.03 64 1013.0
20260905221558 32 203 19.3 35.4 0.00 0.03 0.03 63 1013.1
20260905221033 32 208 16.1 27.4 0.00 0.03 0.03 63 1013.0
20260905220531 32 198 12.9 25.7 0.00 0.03 0.03 62 1013.0
20260905220053 32 198 9.7 20.9 0.00 0.03 0.03 62 1013.0
20260905215531 32 174 11.3 27.4 0.00 0.03 0.03 62 1012.9
20260905215030 32 167 11.3 30.6 0.00 0.03 0.03 60 1012.9
20260905214553 32 165 11.3 30.6 0.00 0.03 0.03 60 1012.9
20260905214031 32 159 9.7 30.6 0.00 0.03 0.03 62 1012.9
20260905213533 32 194 12.9 30.6 0.00 0.03 0.03 60 1012.9
20260905213051 32 186 14.5 27.4 0.00 0.03 0.03 60 1012.9
20260905212532 32 157 12.9 33.8 0.00 0.03 0.03 59 1013.0
20260905212030 32 188 14.5 33.8 0.00 0.03 0.03 59 1012.9
20260905211544 32 150 14.5 32.2 0.00 0.03 0.03 61 1012.9
20260905211031 32 178 16.1 32.2 0.00 0.03 0.03 61 1012.9
20260905210531 32 159 12.9 25.7 0.00 0.03 0.03 60 1013.0
20260905210055 32 174 14.5 25.7 0.00 0.03 0.03 60 1013.0
20260905205531 32 150 9.7 24.1 0.00 0.03 0.03 62 1013.0
20260905205031 32 145 11.3 22.5 0.00 0.03 0.03 62 1013.0
20260905204555 32 98 9.7 19.3 0.00 0.03 0.03 64 1013.0
20260905204032 32 184 6.4 17.7 0.00 0.03 0.03 64 1013.0
20260905203532 32 92 8.0 17.7 0.00 0.03 0.03 65 1012.9
20260905203103 31 128 6.4 17.7 0.00 0.03 0.03 65 1012.9
20260905202532 31 158 8.0 17.7 0.00 0.03 0.03 66 1012.9
20260905202031 31 150 8.0 25.7 0.00 0.03 0.03 65 1013.0
20260905201553 31 161 11.3 25.7 0.00 0.03 0.03 65 1013.0
20260905201030 30 169 11.3 27.4 0.00 0.03 0.03 65 1013.1
20260905200531 30 169 9.7 27.4 0.00 0.03 0.03 66 1013.2
20260905200057 28 180 14.5 29.0 0.00 0.03 0.03 68 1013.2